Location: Les Salelles
(44.4192°N, 4.1044°E)
Time: 16:27:11
(UTC+00:00)

Lacrosse 5 - Pass Details

Date: 20 January 2021
Orbit: 715 x 724 km, 57.0° (Epoch: 22 February)

Event Time Altitude Azimuth Distance (km) Brightness Sun altitude
Rises 17:33:52 0° 312° (NW) 3,123 5.6 -10.2°
Reaches altitude 10° 17:36:24 10° 320° (NW) 2,201 4.7 -10.7°
Maximum altitude 17:41:10 40° 30° (NNE) 1,055 2.4 -11.5°
Enters shadow 17:45:00 15° 95° (E) 1,883 3.5 -12.1°
